Terminal Aerodrome Forecast
Issued by NWS

Home | Current Version | Previous Version | Text Only | Print | Product List | Glossary On
Versions: 1 2 3 4 5 6 7 8 9 10 11 12 13 14 15 16 17 18 19 20 21 22
059
FTUS46 KSEW 121735
TAFSEA
TAF
KSEA 121735Z 1218/1324 20012G20KT 3SM -RA BR BKN006 OVC012
     FM122000 21014G22KT P6SM SCT012 BKN018 OVC040
     FM122200 23012G20KT P6SM VCSH SCT020 BKN040
      TEMPO 1222/1302 6SM -SHRA BR BKN020 OVC030
     FM130800 19009KT 5SM -RA BR SCT008 OVC015
     FM131400 19011KT P6SM SCT015 BKN030
     FM132000 18011KT 5SM -RA BR SCT012 BKN018 OVC030=

USA.gov is the U.S. government's official web portal to all federal, state and local government web resources and services.